Location: Newark
(35.5000°N, 109.0000°E)
Time: 14:50:29
(UTC+00:00)

Hubble Space Telescope - Visible Passes

Search period start: 29 September 2020 00:00
Search period end: 09 October 2020 00:00
Orbit: 536 x 540 km, 28.5° (Epoch: 28 September)

Date Brightness Start Highest point End Pass type
(mag) Time Alt. Az. Time Alt. Az. Time Alt. Az.
29 Sep 2.0 21:28:17 21° SW 21:30:11 30° S 21:33:49 10° ESE visible
30 Sep 1.9 21:18:14 25° SW 21:19:24 30° S 21:23:00 10° ESE visible
01 Oct 1.9 21:08:11 28° SSW 21:08:36 29° S 21:12:10 10° SE visible
02 Oct 2.1 20:58:11 26° S 20:58:11 26° S 21:01:17 10° SE visible
03 Oct 2.6 20:48:13 21° SSE 20:48:13 21° SSE 20:50:22 10° SE visible
04 Oct 3.1 20:38:18 15° SSE 20:38:18 15° SSE 20:39:25 10° SE visible
